This is the latest recevied weather packets stored in our database for station/object KD9JJA. If no packets are shown the sender has not sent any weather packets the latest 10 day(s).
| Time | Temp. | Humidity | Pressure | Rain* | Wind** | Luminosity | Snow |
|---|---|---|---|---|---|---|---|
| 1777400974 | 19.44° C | 75% | 1016.6 hPa | 0 mm | - | 691 W/m² | - |
| 1777400669 | 19.44° C | 75% | 1016.6 hPa | 0 mm | - | 599 W/m² | - |
| 1777400368 | 19.44° C | 78% | 1016.6 hPa | 0 mm | - | 465 W/m² | - |
| 1777400062 | 18.89° C | 76% | 1016.5 hPa | 0 mm | - | 410 W/m² | - |
| 1777399760 | 19.44° C | 77% | 1017 hPa | 0 mm | - | 341 W/m² | - |
| 1777399456 | 18.89° C | 77% | 1016.9 hPa | 0 mm | - | 511 W/m² | - |
| 1777399155 | 18.89° C | 76% | 1016.9 hPa | 0 mm | - | 264 W/m² | - |
| 1777398851 | 18.89° C | 79% | 1016.7 hPa | 0 mm | - | 471 W/m² | - |
| 1777398548 | 18.89° C | 78% | 1017 hPa | 0 mm | - | 142 W/m² | - |
| 1777398244 | 18.89° C | 81% | 1017.1 hPa | 0 mm | - | 133 W/m² | - |
| 1777397942 | 18.33° C | 78% | 1017 hPa | 0 mm | - | 132 W/m² | - |
| 1777397637 | 18.33° C | 82% | 1017 hPa | 0 mm | - | 100 W/m² | - |
| 1777397334 | 18.33° C | 82% | 1016.8 hPa | 0 mm | - | 114 W/m² | - |
| 1777397025 | 18.33° C | 81% | 1016.9 hPa | 0 mm | - | 137 W/m² | - |
| 1777396722 | 18.33° C | 81% | 1017 hPa | 0 mm | - | 101 W/m² | - |
| 1777396418 | 17.78° C | 82% | 1017.3 hPa | 0 mm | - | 74 W/m² | - |
| 1777396115 | 17.78° C | 78% | 1017.1 hPa | 0 mm | - | 83 W/m² | - |
| 1777395805 | 17.78° C | 83% | 1017.4 hPa | 0 mm | - | 130 W/m² | - |
| 1777395501 | 17.78° C | 82% | 1017.3 hPa | 0 mm | - | 120 W/m² | - |
| 1777395198 | 17.78° C | 82% | 1017.5 hPa | 0 mm | - | 118 W/m² | - |
| 1777394896 | 17.22° C | 83% | 1017.4 hPa | 0 mm | - | 138 W/m² | - |
| 1777394591 | 17.78° C | 82% | 1017.4 hPa | 0 mm | - | 168 W/m² | - |
| 1777394288 | 17.22° C | 83% | 1017.4 hPa | 0 mm | - | 177 W/m² | - |
| 1777393984 | 17.22° C | 82% | 1017.5 hPa | 0 mm | - | 467 W/m² | - |
| 1777393683 | 17.22° C | 80% | 1017.4 hPa | 0 mm | - | 142 W/m² | - |
* Rain latest hour (hover to see other rain measurements)
** Current wind speed in m/s (hover to see current wind gust speed)